Location: Beccas
(43.4309°N, 0.1528°E)
Time: 23:16:50
(UTC+00:00)

CZ-4 R/B - Pass Details

Date: 15 October 2021
Orbit: 531 x 595 km, 97.8° (Epoch: 26 November)

Event Time Altitude Azimuth Distance (km) Brightness Sun altitude
Rises 18:02:46 0° 141° (SE) 2,699 4.5 -9.2°
Reaches altitude 10° 18:05:02 10° 130° (SE) 1,820 3.5 -9.6°
Maximum altitude 18:08:29 30° 69° (ENE) 1,019 2.2 -10.3°
Drops below altitude 10° 18:12:00 10° 8° (N) 1,866 3.9 -10.9°
Sets 18:14:21 0° 358° (N) 2,780 4.9 -11.3°
